Theta_e
311 311 311 311 311 311 311 313 314 315 316 315 316 317 318 318 318 312 306 310 314 324 321 316 317 317 317 311 308 303 294 291 295 296 298 297 300 300 302 311 316 320 318 322 331
309 310 310 310 310 311 310 310 311 310 313 315 315 316 316 317 310 305 314 320 320 325 313 311 310 314 309 309 308 300 292 295 300 300 295 297 298 296 302 306 312 316 323 329 331
308 308 308 309 309 309 310 310 310 310 310 313 315 315 316 313 301 302 317 320 321 324 313 313 314 311 306 308 307 303 293 300 301 300 296 297 296 298 299 297 301 314 319 327 329
307 307 307 307 308 308 308 309 309 310 310 310 314 315 314 307 287 308 320 323 322 319 311 310 308 305 303 301 307 300 304 303 304 304 300 296 297 296 296 297 300 318 323 325 325
307 306 306 306 306 307 307 308 309 309 309 309 313 314 306 298 298 311 320 319 317 314 307 306 304 302 299 301 302 300 302 305 305 304 302 298 296 297 295 298 304 320 323 322 323
307 307 307 306 307 307 307 307 308 309 309 309 312 311 301 291 306 308 313 310 311 311 307 304 303 303 301 300 297 300 299 300 304 303 301 295 296 295 298 299 318 308 321 321 321
307 307 307 307 306 307 307 306 307 308 308 309 311 308 299 295 305 308 311 308 313 312 306 307 305 300 301 299 304 302 297 299 301 301 300 299 294 293 299 297 307 318 320 321 322
307 307 307 307 307 306 306 306 306 307 308 309 310 306 295 306 305 305 306 307 309 310 310 310 308 300 297 298 298 295 295 291 298 299 299 298 290 298 300 296 297 297 305 319 321
308 307 307 306 306 307 306 306 306 306 307 308 303 301 292 308 300 304 304 302 307 308 309 311 303 295 295 291 288 289 283 287 291 299 298 295 292 299 297 296 295 295 295 298 313
308 308 307 306 306 306 306 306 305 303 303 305 302 293 297 295 301 304 304 304 304 304 303 301 297 290 288 289 281 284 284 288 288 294 296 293 292 296 299 297 299 297 295 295 296
308 307 307 306 305 306 300 295 291 292 294 291 292 292 296 300 303 300 304 301 302 299 291 296 288 284 285 290 287 290 288 286 289 293 293 292 292 295 297 292 291 292 293 293 295
307 307 306 305 305 305 297 291 293 293 287 294 296 294 297 300 294 298 304 295 295 289 292 291 284 290 291 291 288 288 286 285 289 290 288 288 290 294 295 293 293 293 292 292 292
307 306 305 305 304 296 292 294 301 300 285 289 294 291 294 297 293 294 298 295 292 289 290 285 288 293 291 288 286 285 283 283 285 287 287 284 283 286 290 291 291 293 293 294 293
306 305 305 303 295 292 289 297 300 296 271 278 288 291 294 297 291 299 299 295 291 286 289 287 290 290 289 287 288 283 288 287 285 282 278 282 276 281 286 288 290 291 291 292 294
306 305 305 304 291 289 294 298 293 287 259 280 288 299 295 291 292 294 300 295 287 287 289 284 286 287 287 287 289 286 289 287 285 282 281 278 276 280 284 284 287 288 290 291 292
306 305 305 300 293 294 297 293 286 269 258 275 287 287 287 289 290 295 295 296 294 288 287 285 291 290 289 291 290 290 286 285 283 281 275 279 276 277 280 284 286 290 291 291 290
306 306 301 297 289 295 292 283 267 262 272 274 279 286 285 285 287 289 288 286 284 279 276 283 284 289 290 288 290 287 282 274 272 272 273 278 276 279 284 286 286 288 288 288 288
306 304 300 297 296 293 285 273 260 260 262 280 283 283 280 285 284 286 286 283 286 282 279 276 275 285 289 287 285 284 282 275 268 268 274 279 275 279 288 289 289 289 288 287 286
304 295 293 295 295 288 277 263 264 266 279 280 279 273 278 282 283 283 282 283 286 284 277 277 277 287 289 290 289 284 280 283 277 269 272 277 280 283 288 288 287 286 286 285 284
293 293 293 296 292 283 271 268 265 277 283 281 268 274 270 279 279 279 281 284 285 288 287 282 276 285 287 290 289 287 287 278 275 264 265 275 277 277 283 285 286 284 283 283 283
291 287 294 296 288 276 265 264 272 281 283 278 275 270 278 277 281 279 277 282 284 286 288 283 279 280 286 283 282 283 282 282 280 277 271 270 274 284 284 286 287 285 284 283 282
286 280 294 289 274 270 264 264 282 281 282 281 282 281 274 278 276 280 278 280 285 285 283 285 280 276 280 286 288 286 283 283 276 271 274 276 275 286 286 287 287 285 284 282 281
285 286 293 286 267 264 274 276 281 279 281 280 280 283 285 275 277 280 280 285 286 286 284 285 275 273 276 280 284 283 285 286 285 283 275 272 274 287 286 285 285 284 283 282 281
282 276 281 281 278 269 265 270 274 283 281 283 282 285 282 280 281 278 280 284 286 287 290 287 278 273 271 275 279 278 282 284 281 276 276 277 278 282 284 286 285 284 283 281 280
286 279 281 275 271 275 275 278 272 272 281 283 282 281 281 278 278 277 282 282 284 286 285 280 271 277 276 277 279 277 279 281 279 277 277 279 280 283 285 284 286 286 283 282 280
282 280 284 276 279 278 278 274 276 274 279 278 276 280 280 276 278 276 280 281 279 281 281 281 271 273 269 277 279 274 278 279 277 276 275 276 276 284 286 284 285 285 283 282 281
282 283 283 282 277 272 273 279 279 281 282 282 281 280 278 278 280 280 281 282 281 279 278 275 269 267 265 270 270 265 273 278 279 280 277 271 279 281 283 285 285 284 283 283 281
Wind_Speed
14 12 13 14 15 13 15 15 13 17 17 17 15 12 11 10 7 3 10 9 8 12 4 4 6 3 4 2 4 2 1 3 4 6 4 2 5 0 3 3 1 2 6 4 18
12 12 12 13 14 14 15 15 13 10 18 17 18 13 10 8 3 8 10 16 15 13 6 7 6 8 4 2 1 2 4 7 2 3 2 2 1 2 2 1 2 4 9 16 18
12 11 11 12 14 15 14 16 14 15 17 24 17 13 11 3 2 8 18 23 16 14 5 4 5 5 6 3 5 3 6 2 2 6 2 2 3 4 4 3 1 4 11 15 17
11 11 12 13 13 14 15 15 15 12 14 21 15 13 9 3 7 3 5 11 17 10 6 7 6 7 6 7 4 5 5 4 6 8 7 3 2 2 1 3 2 8 13 12 15
10 11 12 12 13 15 15 16 16 13 14 15 18 11 4 4 7 3 2 0 9 8 7 6 8 6 8 6 3 5 3 2 6 13 9 4 1 2 3 3 4 7 8 10 11
11 11 12 13 14 16 16 15 17 16 8 14 19 5 3 8 5 6 7 3 7 11 8 5 6 5 5 8 3 2 8 11 8 9 7 2 2 2 2 2 4 11 9 8 9
10 12 12 14 14 16 17 16 15 15 9 11 10 4 5 11 2 4 5 4 7 10 9 8 3 2 6 6 8 8 5 11 9 5 6 6 4 6 3 1 5 5 7 7 8
12 12 12 12 13 14 16 17 16 13 8 10 9 6 6 4 3 5 1 2 3 7 7 11 4 2 3 5 5 2 4 5 3 5 6 7 2 10 7 5 6 5 5 5 6
12 12 11 11 12 15 16 18 16 10 10 13 6 6 3 1 4 5 2 2 3 1 4 11 5 3 3 7 4 1 3 5 3 4 4 3 3 2 4 6 6 7 7 5 5
14 13 11 9 11 14 14 18 9 4 4 4 2 2 6 4 4 5 4 1 2 4 6 6 4 4 2 6 8 5 4 5 5 3 5 8 6 7 6 7 9 7 5 6 6
13 14 9 9 9 10 7 5 5 1 2 4 2 3 4 3 4 3 4 3 3 5 3 5 4 12 10 7 2 6 4 3 2 8 8 9 8 12 7 5 6 6 6 5 8
12 11 7 7 7 7 2 1 1 1 5 7 2 4 11 4 4 4 5 5 4 4 4 4 4 6 6 9 5 13 13 7 2 0 0 4 12 14 6 6 6 8 6 6 4
10 9 6 4 4 4 1 4 3 5 3 3 3 0 9 8 4 6 9 3 3 3 4 5 3 8 7 7 8 4 6 4 4 2 3 3 5 4 4 5 4 4 5 4 3
9 6 4 0 3 2 4 5 4 2 5 6 2 2 5 4 2 4 5 6 3 7 6 4 2 9 6 7 10 7 4 3 6 5 4 0 5 5 5 7 5 7 6 5 5
9 6 3 6 2 1 4 5 4 5 5 8 2 2 4 4 4 3 2 3 8 6 3 4 4 6 7 5 7 4 7 7 4 4 3 1 2 7 2 4 8 4 1 7 8
9 7 6 3 2 3 2 4 6 9 5 6 5 1 2 2 2 5 5 3 4 5 2 4 1 4 5 4 5 7 7 7 4 2 1 5 5 5 4 4 3 5 6 8 7
10 9 7 3 1 1 3 5 7 6 4 6 3 3 3 1 1 4 6 4 5 7 4 1 0 1 3 7 2 4 5 3 3 1 4 0 2 7 4 6 5 7 6 7 7
9 13 5 2 3 3 5 8 8 4 6 5 3 2 4 4 1 3 7 4 2 4 5 5 2 5 3 5 7 4 6 6 8 5 2 2 5 4 3 6 8 9 8 7 7
16 3 3 4 3 4 7 6 8 6 4 5 4 5 4 2 3 4 2 5 3 3 6 5 1 1 2 3 7 4 3 3 6 3 3 4 4 2 4 7 7 6 7 6 6
4 3 3 6 4 6 7 2 2 3 5 2 2 2 0 2 2 3 5 2 1 3 2 3 5 3 1 3 4 4 7 4 4 4 3 3 1 0 6 2 5 3 4 4 4
5 4 3 7 4 7 4 6 4 5 2 1 2 0 2 1 1 1 3 2 4 2 4 3 4 3 3 5 2 3 3 4 4 4 4 2 1 3 5 8 6 5 4 4 4
4 4 4 4 5 1 2 5 3 3 3 1 2 3 3 2 2 2 4 3 5 3 6 1 4 4 3 3 3 1 2 5 4 4 1 2 2 2 2 3 5 5 5 4 4
3 2 3 5 3 2 2 2 2 2 3 2 2 2 1 2 1 3 4 3 3 2 5 4 2 3 2 2 2 3 2 4 5 2 3 5 4 1 2 2 2 5 5 5 5
4 3 3 4 2 6 2 2 3 3 3 2 3 3 1 3 1 5 4 2 3 2 7 5 3 4 5 3 3 4 4 3 3 3 2 3 2 4 4 5 6 5 5 6 6
2 1 2 1 4 1 1 2 2 3 3 2 2 1 2 0 2 5 3 3 5 6 4 5 5 2 4 4 3 2 3 5 4 3 3 3 2 7 7 5 6 7 6 6 6
4 3 2 2 2 3 4 3 0 2 4 3 2 5 3 3 2 4 5 1 2 4 3 3 3 3 3 6 4 2 3 1 2 2 2 1 6 5 8 6 4 6 7 7 7
1 1 3 2 1 4 2 1 1 0 3 4 3 3 11 6 3 6 8 9 5 3 3 4 5 4 3 4 3 5 6 5 3 3 6 4 8 3 5 7 7 5 8 8 7
Wind_Direction
336 332 319 318 318 319 325 321 350 323 274 267 260 254 256 255 262 235 227 220 194 200 159 129 137 183 85 74 327 116 189 220 207 157 235 242 128 206 301 124 156 323 154 170 136
341 335 324 322 327 321 316 317 313 304 329 299 261 252 259 257 231 245 231 227 224 192 158 167 167 143 104 98 263 61 186 203 236 200 235 312 259 181 75 30 31 40 66 127 138
337 333 332 330 326 323 323 317 311 302 304 313 255 246 245 214 295 241 232 226 225 194 198 205 147 145 162 137 173 151 210 205 1 347 310 288 328 121 144 50 203 168 137 143 148
334 332 334 330 328 326 324 314 314 298 286 307 284 241 241 173 221 259 205 218 205 168 147 142 144 169 164 168 147 230 264 74 332 345 336 345 357 27 350 179 290 166 152 146 155
325 328 327 328 324 328 323 317 310 294 277 286 287 240 185 206 243 267 174 42 181 155 166 176 169 151 157 134 103 207 308 25 355 320 297 293 260 314 268 285 266 138 143 159 161
315 318 320 316 319 321 324 321 319 312 291 276 274 237 202 224 240 254 211 180 182 185 190 186 177 183 140 154 147 189 253 279 297 289 290 254 266 83 260 65 88 169 165 158 165
315 318 312 312 316 321 319 320 320 313 294 273 275 245 205 216 156 351 193 188 169 177 180 193 219 124 133 130 139 177 194 243 229 240 267 161 270 218 195 164 111 143 167 171 174
305 308 314 319 309 314 311 319 319 310 314 306 272 277 210 209 291 288 330 134 181 171 176 181 175 105 111 106 53 307 21 182 222 268 247 163 228 233 231 212 194 177 208 188 198
293 298 306 317 313 315 308 312 312 300 312 311 259 290 210 297 165 238 195 162 164 80 132 160 138 150 88 103 74 273 204 193 250 287 331 182 186 241 162 180 219 198 206 210 217
290 282 296 313 312 307 304 316 303 294 328 248 54 120 273 207 175 174 178 142 146 155 113 122 141 129 152 164 196 180 215 199 186 223 287 293 292 294 252 205 217 225 222 217 218
288 287 286 302 311 305 348 342 6 4 324 284 164 230 16 318 111 150 147 122 117 90 162 151 141 189 190 176 51 57 270 122 339 188 163 266 274 279 262 248 180 192 229 205 215
290 288 290 308 316 314 50 6 167 285 302 257 316 353 298 274 128 164 129 143 145 136 121 108 206 165 151 147 115 174 226 202 219 259 76 194 235 248 214 248 202 192 206 221 182
282 278 274 315 332 8 335 274 150 183 308 285 189 42 292 328 136 176 134 126 90 96 131 148 213 152 156 161 177 230 180 196 189 85 50 326 276 255 237 211 267 252 211 239 216
262 256 269 77 30 290 309 317 28 123 45 316 110 85 295 267 114 138 156 119 145 169 157 210 335 167 142 173 182 220 204 149 135 126 175 179 268 250 227 234 197 242 217 214 109
241 234 213 139 196 99 291 333 24 59 43 310 354 135 315 301 141 170 213 84 145 144 146 223 153 135 161 167 152 207 146 159 130 101 124 196 144 266 28 250 238 240 156 75 67
217 192 161 98 42 261 356 17 43 45 278 336 338 219 197 253 307 103 158 41 119 109 112 196 340 162 173 146 172 152 94 60 48 80 308 213 145 269 198 224 99 50 59 69 57
188 171 130 109 207 353 37 46 41 106 310 311 328 337 168 204 29 104 148 161 144 135 143 92 340 257 135 117 52 106 91 50 15 337 214 152 147 263 318 348 327 141 94 66 53
160 115 84 39 14 35 49 46 66 240 242 320 291 333 187 140 349 89 128 143 324 94 113 146 185 194 192 152 159 168 162 152 184 193 157 117 220 259 25 38 55 86 95 82 65
109 61 57 350 9 55 68 57 194 204 273 311 357 31 338 82 128 98 132 140 189 147 128 133 207 346 152 128 144 180 154 148 102 41 85 208 270 98 90 64 57 64 72 64 60
94 76 52 335 5 60 73 247 196 242 320 344 144 135 60 334 90 90 144 62 227 173 103 176 107 1 68 95 30 152 157 77 25 114 255 287 279 237 349 28 133 104 97 84 67
59 78 4 349 49 47 129 228 272 264 291 7 321 107 217 217 66 115 163 7 17 131 85 131 80 302 123 29 130 122 130 65 111 123 170 148 254 25 322 310 188 140 122 118 100
79 77 328 21 53 91 121 192 261 307 310 260 282 252 181 182 114 170 137 38 332 283 131 110 112 82 72 50 31 41 83 141 140 251 249 124 267 10 1 353 105 138 138 135 130
69 64 336 69 119 312 342 303 278 297 304 325 263 261 307 118 168 107 81 296 323 41 139 172 5 96 55 356 48 84 96 78 85 73 207 133 261 167 141 62 142 160 174 154 146
90 95 345 42 170 132 160 295 298 245 276 279 284 248 208 44 189 136 109 53 341 35 66 77 83 146 164 164 134 144 156 117 100 129 179 180 261 252 270 226 205 216 185 176 170
54 152 164 176 308 230 285 191 354 4 307 237 314 319 131 29 37 82 86 115 34 355 50 83 107 64 47 20 42 141 139 136 148 171 141 242 223 261 251 268 237 191 168 172 182
132 152 151 175 141 171 348 299 51 333 7 345 82 22 43 98 351 155 119 70 153 16 71 19 116 114 42 20 31 48 314 335 56 106 314 330 271 272 305 299 198 187 177 188 190
223 5 110 31 85 77 239 20 38 216 78 40 13 79 47 0 44 60 69 67 76 106 89 66 112 65 287 356 21 359 216 195 195 180 155 184 237 319 304 295 287 217 195 194 188